THORAD AGENA D DEB, 5691

Orbit data source: Space-Track

THORAD AGENA D DEB, 5691 is space debris in SSO originally from a launch on Wed, 08 Apr 1970 UTC launched from the Air Force Western Test Range (AFWTR). Debris objects in space refer to the collection of defunct objects orbiting the Earth. Examples of debris include non-operational satellites, rocket bodies, and fragments generated from explosions, collisions, or faulty payload assembly.

Loading next visibility...
Identifier
5691, 1970-025LW
Orbit
SSO
Country
Flag of USUS
Related business
Manufacturer
Unknown
Mission
Spacecraft
Bus & Motor
Unknown
Mass
Unknown
Launch date (UTC)
1970-04-08 (56 years ago)
Launch vehicle
Unknown
Launch site
Air Force Western Test Range (AFWTR)
Object type
Payload
Rocket body
Debris
Shape & HBR
Unknown shape, 0.1 m
Radar Cross Section
Small (<0.1 m²)

Expand to show TLE details & history
Last TLE update: 1 day ago

TLE from 1 day ago
0 THORAD AGENA D DEB
1 05691U 70025LW  26256.17013403  .00001230  00000-0  72758-3 0  9993
2 05691  98.8882 328.3750 0032704   4.8286 355.3194 14.09308156842065
Epoch: 2026-09-13T04:04Z
TLE epoch observation values (Epoch: 2026-09-13T04:04:59.580Z)
Latitude
0.00006°
Longitude
-85.04189°
Altitude
841.032 km
Speed
7.444 km/s
True Right ascension
21h 53m 29s
True Declination
0° 00' 00"
Sunlit
Object was in full shadow at epoch
Visualization orbit readout
Latitude
Unknown
Longitude
Unknown
Altitude
Unknown
Speed
Unknown
Apparent Right ascension
Unknown
Apparent Declination
Unknown
Sunlit
N/A
Visualization observer readout
Local Sidereal Time
00:42:45
Azimuth
Unknown
Elevation
Unknown
Doppler factor
Unknown
Orbital elements
Apogee altitude
882.59 km
Perigee altitude
835.254 km
Semi-major axis
7,237.059 km
Eccentricity
0.00327
Inclination
98.8882°
RAAN
328.375°
Arg. of periapsis
4.8286°
True anomaly
355.28869°
Mean anomaly
355.3194°
Eccentric anomaly
355.30406°
Mean motion
3.52533 °/min
Orbital period
102.12 mins
BSTAR
0.00072758
Loading maneuver chart data...
Computing Atmospheric mass density...

Documentation

Showing up to 5 results
|